Loisir ou Compétition : Rejoignez un Club de la Fédération

Résultats

GRAND PRIX DE MEGEVE

MEGEVE

KO-QLF Dames

Jury de Compétition

Délégué Technique :
PIQUOT SYLVAIN (MB)
D.T. Adjoint :
PORRET THIERRY (MB)
Dir. Epreuve :
RUAU GWENAEL (MB)

Caractéristiques de la Piste

Piste :
LA LIVRAZ
Distance :
0.8 km
Point Haut :
 
Point Bas :
 
Montée Tot. :
 
Montée Max. :
 
Homologation :
2016-63-1

Pénalité Appliquée :
 
Coefficient :
 

Catégorie :
U13
Style :
L

06/01/19 - FMBF0031

CltDosClt/CatCodeAnNom PrénomComClubTempsEcartPoints
11521/U13FFS26914382006Roguet LouiseMBPRAZ LYS-SOM2:23.0800.00
21542/U13FFS26915592006PERRILLAT COLLOMB ROMANEMBSC GD BORNAN2:23.1600.08
31683/U13FFS26763122006COUPAT ANNETTEFZBESSAT S HIV2:25.6402.56
41714/U13FFS26745682006BUISSON LEANDRAMBCS MEGEVE2:26.5503.47
51645/U13FFS26922512006ORVAIN CHLOEMBSCNP ROCHOIS2:26.9003.82
61576/U13FFS26721822006BEZAT LISE ANNEMBSC GD BORNAN2:28.2405.16
71587/U13FFS26915462006CARTIER MICHAUD LeelouMBSC GD BORNAN2:28.5605.48
81698/U13FFS26923012006FAGOT SARAHMBCS CHAMONIX2:28.7205.64
91739/U13FFS26711632006MISSILLIER CHLOEMBSC GD BORNAN2:29.4806.40
1017510/U13FFS26733992006PAYOT LOLAMBCS CHAMONIX2:30.5807.50
1117611/U13FFS26928352006GERMAIN LILYMBCS CHAMONIX2:31.5708.49
1217412/U13FFS26671082006DUC GONINAZ CLOESASC ARECHES2:31.8708.79
1314413/U13FFS26915512006BOIS LOUISONMBSC CONTAMINE2:32.8109.73
1417014/U13FFS26811852006VITTOZ NoelieMBCS LA CLUSAZ2:33.0609.98
1514815/U13FFS26933532006OUSTRY EMMAMBCS CHAMONIX2:33.7710.69
1614516/U13FFS26922532006LEVET LINAMBSCNP ROCHOIS2:34.0510.97
1716217/U13FFS26811832006MICHEL KatiaMBCS LA CLUSAZ2:34.6111.53
1816618/U13FFS26972462006VION TIFENNMBVILLARD/BOEG2:37.6914.61
1911119/U13FFS26917442007BLANC CAMILLESASC ARECHES2:38.8915.81
2011320/U13FFS26847642007GACHET EMMAMBCS MEGEVE2:39.0415.96
2111421/U13FFS26969032007PINEL JULIAMBSALLANCHES2:40.7217.64
2212222/U13FFS26917452007SEVESSAND AGATHESASC ARECHES2:40.7617.68
2312123/U13FFS26920442007CANET CLOEMBCS LA CLUSAZ2:40.8817.80
2413024/U13FFS26964322007PERRILLAT COLLOMB AgatheMBSC GD BORNAN2:40.9617.88
2515525/U13FFS26743832006BUGEAUD LOLAMBCS MEGEVE2:41.0217.94
2612326/U13FFS26964232007ALAIS ANGELEMBSC GD BORNAN2:41.3718.29
2711827/U13FFS26965352007BETRIX MELINAMBCHABLAIS NOR2:42.8219.74
2813628/U13FFS26966502007HECKMANN ALEXANDRAMBCS CHAMONIX2:44.0320.95
2917729/U13FFS26914402006Roche NinonMBPRAZ LYS-SOM2:44.3121.23
3015330/U13FFS26677532006DESMARTIN CHARLINEMBSC D'AGY2:44.6721.59
3111731/U13FFS26964242007BASTARD ROSSET NellyMBSC GD BORNAN2:44.7021.62
3215132/U13FFS26936932006LELEVRIER EOLEMBVILLARD/BOEG2:46.1623.08
3313833/U13FFS26917432007CHAUCHAIX LOUISASASC ARECHES2:46.2823.20
3417234/U13FFS26711662006CARUANA LIVMBVILLARD/BOEG2:46.8223.74
3512035/U13FFS26969012007OLIVA JULIETTEMBSALLANCHES2:47.8224.74
3614936/U13FFS26916022006STENGEL LENAMBCS CHAMONIX2:48.2125.13
3711937/U13FFS26920372007LOUBIERE PORET ISALINEMBCS LA CLUSAZ2:48.3325.25
3814338/U13FFS26966012007ODILE ROSALIESASC ARECHES2:49.2426.16
3915039/U13FFS26915472006JACOB LILLYMBSC CONTAMINE2:49.8226.74
4011540/U13FFS26920412007PROFIT ElineMBCS LA CLUSAZ2:49.8626.78
4113541/U13FFS26966492007GODEY EMILIEMBCS CHAMONIX2:50.8327.75
4212842/U13FFS26804682007GAUDILLAT AGATHEMBSC D'AGY2:52.1429.06
4311243/U13FFS26975692007DELERCE CAMILLEMBSC D'AGY2:52.2629.18
4416544/U13FFS26968252006Canu AnaisMBPRAZ LYS-SOM2:52.2929.21
4515945/U13FFS26928322006BERNARDIN MAYAMBCS CHAMONIX2:52.7129.63
4612446/U13FFS26788712007FAVRE BONVIN MayaMBSC GD BORNAN2:52.8629.78
4713747/U13FFS26966202007JUIGNIER SINTUREL MAYAMBDRAGONS ANNY2:53.3730.29
4813148/U13FFS26793592007ESTEVES GUER PAULINEMBCS MEGEVE2:53.6530.57
4912749/U13FFS26806682007BAUD ALIXMBLES GETS S.C2:54.0130.93
5013450/U13FFS26963032007ROUX HELOISEMBSC CONTAMINE2:54.8231.74
5114151/U13FFS26902602007PASCUAL NINAMBLES GETS S.C2:56.6233.54
5213952/U13FFS26968272007Contant IsalieMBPRAZ LYS-SOM2:56.6533.57
5316153/U13FFS26936912006INAN EMYMBVILLARD/BOEG3:01.0037.92
5414054/U13FFS26984482007Hector ArianeMBPRAZ LYS-SOM3:01.2038.12
5512555/U13FFS26966212007PALLUD BAMBOUMBDRAGONS ANNY3:03.7940.71
5613356/U13FFS26963052007ASSEZAT ODILEMBSC CONTAMINE3:06.0442.96
5714757/U13FFS26982292006CAPRON LIVMBDRAGONS ANNY3:06.2043.12
5811658/U13FFS26963712007HUSSONG FloreMBCS LA CLUSAZ3:07.6044.52
5914259/U13FFS26975652007SALOMON EVIEMBSC D'AGY3:08.0444.96
6013260/U13FFS26969972007TEYSSIER LISEMBSCNP ROCHOIS3:08.2145.13
6112661/U13FFS26975672007DEBALME MARIE LOUMBSC D'AGY3:13.6850.60
Non partants
129FFS26996222007PRICE AMYMBLES GETS S.C
146FFS26934092006VERJAT ELISEMBCS CHAMONIX
156FFS26926432006WALDORF KATHERINEMBCS CHAMONIX
160FFS26915552006PERKINS MargauxMBSC GD BORNAN
163FFS26936802006BRAUN JUSTINEMBVILLARD/BOEG
167FFS26936882006DUPRAZ CLEMENTINEMBVILLARD/BOEG

Informations sur le traitement de la course
9 Epreuve non homologuée , Passage en doublon de l'événement n° 133706